#timestamp,LO_Frequency,Hit,StdDev 
1708574415.1,286047000.7,N
1708574435.9,286046998.2,N
1708574455.7,286046998.1,N
1708574475.5,286046998.8,N
1708574495.4,286046998.7,N
1708574515.2,286047001.2,N
1708574535.1,286046998.1,N
1708574536.0,286046998.1,N
1708574555.8,286046998.8,N
1708574575.6,286047001.1,N
1708574595.5,286047001.0,N
1708574615.3,286046998.9,N
1708574635.1,286046998.2,N
1708574655.9,286047000.0,N
1708574675.7,286046998.7,N
1708574695.6,286046999.5,N
1708574715.4,286046999.7,N
1708574735.2,286047000.1,N
1708574755.1,286047001.2,N
1708574756.0,286047001.2,N
1708574775.8,286046998.7,N
1708574795.7,286046998.1,N
1708574815.5,286046999.0,N
1708574835.3,286047001.2,N
1708574855.2,286046999.6,N
1708574875.9,286046997.0,N
1708574895.7,286046999.0,N
1708574915.6,286046998.3,N
1708574935.4,286046999.4,N
1708574955.3,286046996.8,N
1708574975.1,286046999.1,N
1708574976.0,286046999.1,N
1708574995.8,286046998.9,N
1708575015.7,286046998.7,N
1708575035.5,286046998.7,N
1708575055.3,286046998.4,N
1708575075.2,286047001.1,N
1708575095.0,286046998.9,N
1708575095.9,286046998.9,N
1708575115.8,286046998.7,N
1708575135.6,286046998.3,N
1708575155.4,286047000.5,N
1708575175.3,286047000.0,N
1708575195.1,286047000.8,N
1708575215.8,286046999.3,N
1708575235.7,286046996.9,N
1708575255.5,286046997.8,N
1708575275.4,286046996.8,N
1708575295.2,286046997.7,N
1708575315.0,286046996.6,N
1708575315.9,286046996.6,N
1708575335.8,286046998.8,N
1708575355.6,286046998.9,N
1708575375.5,286046999.1,N
1708575395.3,286046997.2,N
1708575415.1,286046999.0,N
1708575435.9,286046998.5,N
1708575455.7,286046999.0,N
1708575475.5,286047001.0,N
1708575495.4,286047000.7,N
1708575515.2,286047001.1,N
1708575535.1,286046999.5,N
1708575536.0,286046999.5,N
1708575555.8,286046998.7,N
1708575575.6,286046998.1,N
1708575595.5,286047001.1,N
1708575615.3,286047000.6,N
1708575635.2,286047001.2,N
1708575655.9,286046999.0,N
1708575675.7,286046997.8,N
1708575695.6,286046996.5,N
1708575715.4,286046999.0,N
1708575735.2,286046999.1,N
1708575755.1,286046998.7,N
1708575756.0,286046998.7,N
1708575775.8,286047002.6,N
1708575795.7,286047002.8,N
1708575815.5,286047002.7,N
1708575835.3,286047011.9,Y
1708575855.2,286047002.6,P
1708575875.0,286047000.4,N
1708575875.9,286047000.4,N
1708575895.8,286047002.1,N
1708575915.6,286047001.9,N
1708575935.4,286047001.9,N
1708575955.3,286047002.5,N
1708575975.1,286047003.2,N
1708575995.9,286047003.9,Y
1708576015.7,286047001.3,P
1708576035.5,286046999.7,N
1708576055.4,286047000.0,N
1708576075.2,286047000.8,N
1708576095.0,286046998.4,N
1708576095.9,286046998.4,N
1708576115.8,286046998.7,N
1708576135.6,286046998.4,N
1708576155.5,286046999.5,N
1708576175.3,286047000.3,N
1708576195.1,286046998.2,N
1708576215.9,286046996.9,N
1708576235.7,286046996.6,N
1708576255.5,286046999.0,N
1708576275.4,286046999.4,N
1708576295.2,286047000.9,N
1708576315.1,286047000.2,N
1708576316.0,286047000.2,N
1708576335.8,286047000.4,N
1708576355.6,286047000.9,N
1708576375.5,286047000.6,N
1708576395.3,286046998.6,N
1708576415.1,286046999.0,N
1708576435.9,286046999.6,N
1708576455.7,286046999.1,N
1708576475.6,286046999.5,N
1708576495.4,286046999.0,N
1708576515.2,286046996.7,N
1708576535.1,286046997.4,N
1708576536.0,286046997.4,N
1708576555.8,286046996.9,N
1708576575.7,286046997.6,N
1708576595.5,286046997.5,N
1708576615.3,286046997.1,N
1708576635.2,286046996.7,N
1708576655.0,286046999.2,N
1708576655.9,286046999.2,N
1708576675.7,286046997.8,N
1708576695.6,286046997.3,N
1708576715.4,286046996.7,N
1708576735.3,286046998.8,N
1708576755.1,286046999.1,N
1708576756.0,286046999.1,N
1708576775.8,286046997.2,N
1708576795.7,286046996.8,N
1708576815.5,286046999.6,N
1708576835.4,286046997.7,N
1708576855.2,286046995.2,Y
1708576875.0,286046999.5,P
1708576875.9,286046999.5,N
1708576895.8,286046998.4,P
1708576915.6,286046998.9,N
1708576935.4,286047001.2,N
1708576955.3,286047000.9,N
1708576975.1,286047000.2,N
1708576995.9,286046999.8,N
1708577015.7,286046999.8,N
1708577035.5,286046998.4,N
1708577055.4,286046999.4,N
1708577075.2,286046997.1,Y
1708577095.1,286046999.0,P
1708577096.0,286046999.0,P
1708577115.8,286047000.6,N
1708577135.6,286047002.4,Y
1708577155.5,286047001.5,P
1708577175.3,286047004.2,P
1708577195.1,286047004.2,N
1708577215.9,286047002.1,N
1708577235.7,286047002.8,N
1708577255.6,286047002.3,N
1708577275.4,286047001.5,N
1708577295.2,286047001.8,N
1708577315.1,286047002.3,N
1708577316.0,286047002.3,N
1708577335.8,286046999.8,N
1708577355.6,286047000.2,N
1708577375.5,286047001.6,N
1708577395.3,286047002.3,N
1708577415.2,286047002.7,N
1708577435.9,286046999.7,N
1708577455.7,286047000.1,N
1708577475.6,286046998.2,N
1708577495.4,286046999.3,N
1708577515.2,286046998.8,N
1708577535.1,286046998.2,N
1708577536.0,286046998.2,N
1708577555.8,286046998.8,N
1708577575.7,286047001.2,N
1708577595.5,286047002.7,N
1708577615.3,286047002.2,N
1708577635.2,286047001.8,N
1708577655.0,286047001.6,N
1708577655.9,286047001.6,N
1708577675.8,286046999.9,N
1708577695.6,286046999.7,N
1708577715.4,286047002.1,N
1708577735.3,286047001.5,N
1708577755.1,286047001.3,N
1708577775.8,286047004.4,N
1708577795.7,286047002.4,N
1708577815.5,286046999.8,N
1708577835.4,286047000.2,N
1708577855.2,286047002.4,N
1708577875.0,286047002.4,N
1708577875.9,286047002.4,N
1708577895.8,286047000.0,N
1708577915.6,286047000.6,N
1708577935.5,286047002.0,N
1708577955.3,286047001.9,N
1708577975.1,286047001.7,N
1708577995.9,286047001.7,N
